Temp
-10 -10 -10 -11 -11 -11 -11 -12 -12 -12 -12 -12 -12 -12 -12 -13 -13 -13 -13 -14 -15 -15 -15 -16 -16 -16 -16 -16 -15 -15 -14 -14 -14 -14 -14 -14 -14 -14 -15 -15 -15 -15 -15 -14
-10 -10 -11 -11 -12 -12 -12 -12 -12 -12 -12 -12 -12 -12 -13 -13 -13 -13 -13 -14 -14 -14 -15 -15 -15 -15 -16 -16 -16 -15 -15 -15 -15 -15 -14 -14 -14 -14 -15 -15 -15 -16 -15 -15
-10 -11 -11 -11 -12 -12 -12 -12 -13 -12 -13 -13 -13 -13 -13 -13 -13 -13 -14 -14 -14 -14 -15 -15 -15 -15 -16 -16 -16 -16 -16 -15 -15 -15 -14 -14 -15 -15 -15 -15 -16 -16 -16 -16
-10 -11 -11 -11 -12 -12 -13 -13 -13 -13 -13 -13 -13 -13 -13 -14 -13 -14 -14 -14 -15 -15 -15 -15 -15 -15 -16 -16 -16 -16 -16 -16 -16 -15 -15 -15 -16 -16 -16 -17 -16 -16 -16 -17
-11 -11 -11 -12 -12 -12 -13 -13 -13 -13 -13 -13 -14 -13 -13 -13 -14 -14 -14 -15 -15 -15 -15 -15 -15 -16 -16 -16 -16 -16 -16 -17 -16 -16 -16 -16 -16 -16 -16 -16 -16 -17 -17 -17
-11 -12 -12 -12 -12 -13 -13 -13 -13 -13 -13 -14 -14 -14 -14 -14 -14 -14 -15 -15 -15 -15 -16 -16 -16 -16 -16 -16 -17 -16 -16 -16 -17 -17 -17 -17 -17 -17 -17 -16 -17 -17 -16 -17
-12 -12 -12 -13 -13 -13 -13 -14 -13 -13 -14 -14 -14 -14 -15 -15 -15 -15 -15 -15 -16 -16 -16 -16 -16 -16 -16 -16 -17 -17 -17 -17 -17 -17 -18 -17 -17 -17 -17 -17 -17 -17 -17 -17
-12 -12 -12 -13 -13 -13 -14 -14 -14 -14 -14 -14 -15 -15 -15 -15 -15 -15 -15 -16 -16 -16 -16 -17 -17 -17 -17 -17 -17 -17 -17 -17 -18 -18 -18 -19 -18 -17 -17 -17 -17 -18 -18 -18
-12 -13 -13 -13 -14 -15 -14 -15 -15 -15 -15 -14 -15 -15 -15 -15 -15 -15 -16 -16 -16 -16 -16 -17 -17 -18 -17 -17 -17 -18 -18 -18 -18 -18 -18 -18 -19 -19 -18 -18 -18 -18 -18 -19
-13 -13 -13 -14 -14 -15 -15 -15 -15 -15 -15 -15 -14 -15 -16 -15 -16 -16 -15 -16 -16 -16 -17 -17 -17 -18 -18 -18 -18 -18 -18 -18 -18 -19 -19 -19 -19 -19 -19 -19 -19 -19 -19 -18
-13 -13 -14 -14 -14 -15 -16 -16 -16 -16 -16 -16 -15 -15 -16 -16 -16 -15 -16 -16 -16 -17 -17 -17 -17 -18 -18 -19 -19 -19 -18 -19 -19 -19 -19 -19 -19 -19 -20 -19 -19 -19 -19 -19
-13 -13 -14 -15 -15 -16 -16 -16 -16 -17 -17 -16 -16 -15 -17 -17 -16 -16 -16 -16 -16 -17 -17 -18 -19 -19 -19 -19 -19 -19 -19 -19 -19 -19 -19 -19 -20 -20 -20 -20 -20 -19 -20 -20
-13 -13 -13 -14 -15 -15 -16 -16 -17 -17 -17 -17 -17 -17 -17 -18 -17 -17 -16 -16 -17 -17 -17 -18 -19 -20 -20 -20 -20 -20 -20 -19 -20 -20 -20 -20 -20 -20 -20 -20 -20 -20 -20 -20
-13 -13 -14 -15 -16 -16 -17 -17 -18 -18 -18 -17 -17 -17 -18 -18 -17 -18 -18 -19 -19 -18 -19 -20 -20 -20 -20 -20 -20 -20 -20 -20 -20 -20 -20 -20 -20 -20 -20 -20 -20 -20 -20 -20
-14 -14 -14 -15 -15 -16 -16 -17 -19 -19 -19 -17 -17 -18 -18 -18 -18 -18 -18 -19 -20 -20 -20 -21 -21 -21 -21 -21 -21 -21 -21 -20 -20 -20 -20 -21 -21 -21 -21 -21 -21 -21 -21 -21
-14 -15 -15 -15 -16 -16 -16 -17 -18 -18 -19 -19 -18 -18 -19 -18 -18 -18 -19 -19 -20 -21 -21 -21 -21 -21 -21 -21 -22 -22 -21 -21 -21 -21 -21 -21 -21 -21 -21 -21 -21 -21 -21 -21
-15 -15 -16 -15 -16 -16 -15 -16 -17 -18 -18 -19 -18 -19 -19 -19 -19 -19 -19 -21 -21 -22 -22 -22 -22 -22 -22 -22 -23 -23 -22 -22 -22 -21 -22 -22 -22 -22 -22 -22 -22 -22 -22 -22
-16 -16 -16 -16 -16 -16 -17 -17 -18 -18 -18 -19 -19 -19 -19 -19 -19 -19 -21 -22 -22 -22 -22 -22 -22 -23 -23 -23 -23 -23 -23 -23 -23 -22 -22 -22 -23 -22 -22 -22 -22 -22 -21 -21
-17 -17 -17 -17 -17 -16 -17 -17 -18 -18 -18 -19 -19 -19 -19 -19 -19 -20 -21 -22 -22 -22 -23 -23 -23 -23 -23 -24 -24 -24 -24 -24 -23 -23 -23 -23 -23 -23 -23 -23 -23 -23 -22 -22
-17 -17 -17 -18 -18 -17 -18 -18 -18 -19 -19 -19 -19 -19 -19 -19 -20 -21 -22 -22 -22 -23 -23 -24 -24 -24 -24 -24 -24 -24 -24 -24 -24 -24 -24 -24 -24 -24 -24 -23 -23 -23 -23 -23
-17 -17 -18 -18 -19 -18 -18 -19 -19 -19 -19 -19 -20 -20 -20 -21 -21 -22 -22 -23 -23 -24 -24 -24 -24 -24 -24 -24 -25 -24 -25 -25 -25 -25 -25 -25 -25 -25 -25 -24 -24 -24 -24 -24
-17 -18 -18 -18 -18 -18 -19 -19 -20 -20 -21 -21 -20 -21 -21 -22 -22 -23 -23 -24 -24 -24 -24 -25 -25 -24 -25 -25 -25 -25 -25 -25 -25 -25 -25 -25 -25 -25 -25 -25 -25 -25 -24 -24
-18 -18 -18 -18 -19 -20 -20 -21 -21 -21 -20 -20 -21 -22 -22 -22 -23 -24 -24 -24 -25 -25 -25 -25 -25 -25 -25 -25 -25 -25 -25 -25 -25 -25 -25 -25 -26 -26 -25 -25 -25 -25 -25 -24
-17 -18 -18 -19 -19 -19 -20 -20 -21 -21 -21 -21 -22 -23 -23 -24 -24 -25 -25 -25 -25 -25 -25 -26 -26 -26 -26 -26 -25 -25 -25 -26 -26 -26 -26 -26 -26 -26 -25 -25 -25 -25 -26 -26
-18 -18 -19 -18 -19 -19 -19 -20 -21 -21 -21 -22 -22 -23 -24 -25 -25 -26 -25 -26 -26 -27 -27 -27 -26 -26 -26 -26 -26 -26 -26 -26 -26 -26 -26 -26 -26 -26 -26 -27 -27 -27 -28 -28
-18 -19 -19 -18 -19 -20 -20 -20 -21 -22 -22 -22 -23 -24 -25 -25 -26 -26 -26 -27 -27 -27 -27 -27 -27 -26 -26 -26 -27 -27 -26 -26 -26 -26 -27 -27 -27 -28 -28 -28 -29 -29 -29 -30
Height
5817 5812 5807 5804 5799 5795 5790 5785 5781 5776 5773 5769 5764 5761 5757 5754 5750 5746 5742 5736 5731 5727 5723 5720 5717 5714 5713 5712 5710 5709 5707 5706 5704 5703 5702 5702 5702 5703 5703 5703 5705 5707 5708 5711
5817 5811 5806 5802 5797 5793 5788 5784 5779 5774 5770 5766 5761 5757 5753 5751 5747 5744 5740 5735 5730 5725 5720 5717 5713 5710 5707 5706 5704 5701 5700 5700 5697 5695 5695 5694 5693 5693 5693 5693 5694 5695 5697 5699
5813 5809 5803 5799 5795 5790 5786 5781 5777 5773 5768 5763 5759 5756 5752 5748 5744 5741 5737 5734 5729 5724 5719 5714 5710 5706 5702 5698 5696 5695 5692 5691 5689 5687 5686 5686 5685 5684 5684 5683 5684 5684 5685 5686
5811 5806 5801 5796 5792 5787 5783 5778 5774 5771 5766 5761 5757 5754 5750 5746 5741 5738 5735 5730 5726 5721 5716 5710 5706 5702 5698 5694 5689 5686 5685 5684 5682 5680 5678 5678 5676 5675 5674 5673 5673 5673 5674 5673
5810 5803 5799 5794 5789 5785 5781 5776 5771 5767 5763 5759 5754 5750 5745 5742 5739 5736 5731 5726 5722 5717 5712 5707 5701 5697 5693 5689 5686 5682 5678 5677 5676 5674 5671 5669 5668 5666 5664 5664 5663 5663 5662 5662
5806 5800 5796 5791 5786 5781 5776 5773 5768 5763 5759 5756 5751 5746 5744 5739 5736 5731 5727 5722 5717 5713 5708 5703 5698 5693 5688 5683 5680 5676 5673 5670 5667 5666 5664 5662 5660 5659 5656 5655 5655 5655 5653 5653
5802 5798 5792 5788 5783 5778 5773 5767 5763 5759 5753 5751 5747 5744 5740 5736 5731 5726 5722 5717 5712 5707 5702 5698 5693 5688 5682 5678 5674 5669 5666 5663 5660 5657 5656 5655 5653 5651 5649 5648 5646 5646 5644 5644
5798 5794 5787 5783 5778 5773 5768 5763 5758 5753 5749 5746 5743 5741 5735 5729 5725 5721 5716 5712 5707 5703 5697 5692 5687 5682 5676 5671 5667 5663 5659 5655 5652 5650 5647 5645 5644 5642 5641 5639 5637 5636 5636 5634
5793 5790 5782 5777 5772 5769 5763 5758 5753 5748 5744 5740 5737 5734 5728 5723 5718 5715 5711 5707 5702 5696 5690 5685 5679 5674 5669 5663 5658 5654 5650 5647 5643 5641 5639 5636 5633 5632 5631 5629 5629 5627 5626 5624
5787 5784 5778 5772 5767 5762 5758 5753 5748 5744 5738 5734 5730 5730 5723 5718 5711 5707 5704 5699 5695 5689 5683 5677 5671 5665 5659 5654 5650 5645 5641 5637 5633 5631 5628 5627 5625 5622 5620 5619 5619 5618 5616 5613
5780 5775 5773 5765 5761 5756 5753 5746 5743 5738 5733 5730 5724 5724 5716 5712 5705 5701 5698 5692 5687 5681 5674 5668 5662 5656 5651 5646 5641 5637 5633 5628 5624 5621 5619 5616 5615 5614 5612 5610 5609 5608 5607 5606
5773 5767 5762 5758 5752 5747 5745 5739 5735 5729 5726 5723 5717 5718 5709 5704 5697 5692 5688 5683 5678 5674 5666 5660 5653 5648 5642 5637 5632 5628 5624 5619 5615 5612 5610 5607 5605 5603 5602 5600 5598 5597 5596 5595
5766 5759 5752 5750 5745 5739 5737 5732 5727 5722 5719 5716 5709 5709 5703 5696 5689 5684 5677 5671 5665 5659 5654 5648 5644 5638 5633 5627 5622 5617 5613 5609 5605 5602 5599 5598 5595 5593 5591 5589 5588 5586 5585 5584
5758 5753 5744 5741 5735 5729 5728 5724 5718 5714 5713 5704 5706 5697 5698 5685 5679 5673 5666 5660 5653 5648 5644 5638 5632 5627 5622 5617 5611 5607 5602 5598 5595 5591 5588 5586 5584 5582 5580 5579 5577 5575 5574 5573
5750 5746 5737 5735 5729 5723 5721 5718 5711 5706 5705 5696 5697 5687 5685 5676 5671 5666 5659 5652 5643 5636 5631 5627 5620 5614 5609 5604 5599 5594 5590 5585 5583 5580 5577 5574 5571 5569 5568 5566 5565 5563 5562 5561
5744 5737 5731 5729 5724 5716 5716 5711 5705 5699 5694 5687 5683 5680 5671 5666 5661 5653 5645 5638 5632 5626 5619 5614 5607 5600 5596 5591 5586 5582 5577 5573 5570 5566 5563 5561 5559 5557 5555 5553 5551 5549 5548 5547
5734 5728 5723 5721 5715 5707 5708 5701 5696 5691 5686 5679 5673 5667 5660 5653 5646 5639 5634 5626 5620 5614 5606 5599 5593 5587 5582 5577 5572 5568 5565 5561 5557 5554 5551 5548 5546 5544 5542 5539 5537 5535 5533 5532
5722 5717 5711 5708 5705 5700 5695 5691 5686 5681 5674 5669 5662 5655 5649 5642 5634 5625 5620 5614 5607 5599 5592 5585 5579 5572 5567 5563 5558 5554 5550 5547 5544 5541 5538 5536 5533 5530 5528 5526 5523 5521 5519 5517
5710 5704 5698 5695 5693 5690 5689 5680 5675 5668 5665 5657 5648 5641 5635 5627 5620 5612 5605 5599 5592 5583 5575 5569 5564 5557 5551 5547 5544 5540 5536 5533 5530 5527 5525 5522 5520 5516 5513 5511 5508 5506 5503 5501
5704 5697 5693 5686 5680 5677 5675 5668 5663 5656 5651 5644 5636 5628 5621 5613 5606 5601 5591 5583 5575 5566 5560 5554 5548 5543 5537 5532 5528 5524 5520 5518 5515 5513 5510 5507 5504 5501 5498 5495 5492 5489 5487 5484
5695 5688 5683 5678 5668 5668 5662 5656 5649 5643 5639 5628 5620 5613 5605 5598 5590 5583 5576 5567 5559 5552 5546 5540 5534 5528 5522 5517 5513 5509 5505 5502 5500 5497 5494 5491 5488 5485 5481 5478 5475 5472 5469 5467
5684 5678 5673 5666 5656 5653 5650 5642 5637 5629 5621 5613 5606 5599 5592 5586 5577 5567 5558 5550 5543 5536 5529 5524 5518 5512 5507 5502 5498 5495 5491 5488 5485 5482 5478 5475 5472 5469 5466 5462 5459 5455 5452 5448
5671 5668 5660 5655 5647 5640 5634 5627 5621 5614 5607 5600 5594 5587 5578 5570 5561 5552 5543 5535 5527 5519 5512 5505 5500 5496 5492 5488 5485 5481 5477 5473 5470 5467 5463 5460 5456 5453 5449 5445 5441 5436 5432 5427
5660 5652 5649 5642 5637 5625 5619 5614 5607 5598 5590 5584 5577 5569 5561 5552 5543 5535 5528 5520 5511 5502 5495 5489 5485 5482 5479 5475 5471 5467 5464 5460 5457 5453 5449 5446 5441 5436 5432 5426 5422 5416 5411 5406
5647 5639 5633 5630 5622 5613 5607 5600 5592 5583 5575 5569 5561 5552 5544 5536 5528 5520 5513 5504 5495 5488 5482 5477 5473 5469 5466 5462 5458 5454 5451 5447 5444 5439 5435 5431 5425 5420 5415 5409 5403 5397 5391 5386
5631 5625 5615 5611 5605 5596 5591 5582 5575 5568 5561 5553 5544 5536 5528 5521 5514 5506 5497 5490 5482 5475 5471 5466 5462 5457 5453 5449 5446 5442 5438 5434 5430 5425 5420 5414 5409 5404 5399 5393 5386 5379 5374 5368
Wind_Speed
30 32 31 29 28 29 28 29 28 27 25 25 23 22 20 22 26 27 26 27 27 27 28 26 27 25 27 28 30 32 31 31 31 32 33 35 36 39 39 36 39 44 46 47
31 32 33 31 30 31 29 29 28 28 25 24 23 24 22 22 24 26 27 27 29 29 28 28 26 25 26 27 26 28 35 32 27 29 32 34 37 38 40 38 38 40 41 44
34 35 36 34 32 33 31 30 26 27 26 25 22 20 21 23 25 26 26 26 26 30 31 29 27 25 25 26 29 26 28 28 28 28 34 34 31 30 36 40 37 38 38 44
34 36 36 36 36 34 33 30 27 27 28 26 26 24 22 22 24 26 28 28 26 26 30 31 29 29 28 26 27 28 28 32 31 30 29 30 25 29 33 32 36 32 31 38
36 38 37 36 37 37 34 32 30 30 29 26 26 26 26 25 25 26 29 30 30 27 27 29 32 32 30 28 27 29 28 27 31 30 26 27 27 30 31 35 34 31 31 36
36 38 38 38 38 39 37 34 34 36 31 27 29 31 29 27 29 30 30 31 31 31 29 29 30 34 34 31 29 29 30 30 27 31 27 29 30 27 24 26 24 27 38 33
38 37 38 38 39 38 40 36 37 35 34 33 31 28 30 29 27 29 30 32 33 32 31 31 32 36 35 35 32 30 30 30 31 29 29 26 27 27 28 27 31 34 30 34
39 40 41 40 40 40 37 36 35 36 35 35 31 27 28 31 32 31 32 34 36 36 36 37 39 38 37 35 34 33 32 29 31 32 30 30 30 29 27 28 31 35 34 36
43 42 43 42 39 37 37 35 36 37 36 34 33 28 32 33 37 34 35 37 39 40 41 42 43 41 39 36 35 33 34 33 31 31 34 32 29 31 31 31 35 30 35 39
47 45 43 42 41 35 35 35 36 34 37 36 34 29 32 35 39 40 40 40 41 44 45 46 47 44 41 38 37 38 37 35 35 34 34 35 35 31 31 31 32 35 31 35
48 48 44 45 42 37 34 35 33 33 34 35 37 31 32 35 40 42 44 43 44 44 48 49 51 49 46 44 42 40 40 38 35 36 33 34 34 35 34 34 33 30 34 35
51 51 48 44 41 40 35 32 32 34 34 37 38 32 37 38 45 47 46 47 46 45 48 51 50 47 46 45 44 41 39 39 38 35 34 33 32 33 35 37 37 36 35 36
52 52 51 47 45 45 37 35 31 35 36 37 37 32 35 41 47 47 51 52 52 54 55 54 51 49 49 46 45 44 42 41 39 37 36 34 34 33 33 35 37 38 39 39
52 50 49 44 44 41 37 33 36 39 37 41 37 41 37 44 48 47 49 53 54 54 54 53 51 48 47 47 45 43 42 39 37 38 37 37 36 37 37 35 34 34 36 37
49 50 50 45 42 40 38 35 35 37 37 43 39 43 42 49 49 50 54 55 55 55 53 54 54 54 47 44 44 43 42 43 39 38 41 40 40 39 39 39 39 40 40 41
51 47 47 43 39 43 39 34 36 36 38 43 45 47 49 53 54 55 57 58 58 56 57 56 55 54 44 43 41 43 42 42 44 43 43 44 45 45 43 43 43 44 45 45
48 45 47 46 44 47 42 44 41 43 45 47 50 51 54 56 61 61 59 59 62 62 63 60 57 52 47 43 45 46 46 43 42 43 46 45 46 46 46 47 47 48 48 48
48 49 51 50 45 47 45 44 45 46 48 49 53 55 57 60 62 65 63 60 67 71 65 59 54 53 53 51 47 49 47 46 45 45 44 45 45 46 47 49 49 49 50 52
48 49 50 49 48 49 45 46 48 50 51 54 59 58 61 62 64 69 69 69 69 65 61 57 54 55 55 51 48 50 50 47 45 44 44 45 47 48 49 50 52 52 52 54
45 47 48 48 50 52 49 50 52 53 56 59 60 60 62 65 69 73 72 69 64 61 58 56 55 54 55 56 54 48 46 47 47 46 47 48 50 50 51 52 52 53 52 52
46 47 47 49 53 54 53 53 56 58 60 62 62 64 68 72 78 75 69 66 62 59 57 56 56 57 58 54 46 47 45 45 47 47 47 49 50 51 51 51 52 51 52 54
48 50 51 56 59 58 57 58 58 62 61 63 64 68 72 76 73 72 67 65 63 61 61 59 58 57 55 49 46 45 43 44 46 47 48 48 48 48 48 49 51 53 56 59
53 55 58 58 57 57 58 58 60 64 64 66 68 70 71 71 68 67 65 64 65 67 65 62 56 52 47 45 44 44 44 43 44 45 46 47 47 47 50 53 56 59 62 63
56 58 58 59 56 58 58 62 64 66 70 70 70 70 69 67 65 63 64 66 65 61 58 50 44 45 45 46 46 46 44 42 41 42 44 47 50 53 55 58 60 62 63 65
58 60 59 59 60 60 61 64 66 69 70 72 72 70 66 63 62 63 64 61 56 52 49 44 47 48 47 47 45 42 41 42 43 45 48 51 53 54 55 56 57 58 60 61
64 60 60 63 63 62 63 66 67 69 70 70 68 65 62 61 62 63 59 55 51 50 48 43 46 46 44 42 41 41 43 45 47 48 49 49 50 51 52 53 54 56 55 55
Wind_Direction
352 350 350 350 349 348 346 343 342 342 345 343 339 337 336 345 348 349 347 344 344 340 334 324 308 293 281 288 283 285 284 292 289 274 274 267 274 275 268 262 260 252 247 245
352 349 351 348 345 345 344 343 343 342 344 344 341 341 337 343 348 348 346 346 345 346 343 335 327 304 297 285 290 285 278 283 292 276 269 268 270 269 264 259 261 253 251 254
350 348 348 347 344 341 341 341 342 341 344 343 341 341 341 349 350 348 348 344 344 345 344 341 336 325 306 293 288 294 288 288 293 286 269 273 271 270 266 259 261 260 259 259
346 345 345 343 342 341 339 340 340 340 341 340 341 338 338 342 347 348 348 347 342 342 343 339 336 333 326 308 291 287 287 283 292 293 282 273 269 271 265 262 262 265 267 270
343 341 341 339 338 339 337 335 337 336 334 336 337 338 344 344 346 348 343 342 342 337 336 337 332 330 326 320 306 294 286 278 280 293 284 275 277 268 275 274 261 261 272 272
339 338 337 336 335 336 333 330 328 333 334 334 334 339 343 342 346 344 343 343 339 336 332 331 334 330 324 319 313 307 293 287 277 277 285 270 277 276 274 266 252 273 271 268
338 336 333 334 333 332 329 328 327 332 331 336 336 335 336 336 337 337 338 340 338 333 329 326 325 325 323 316 311 309 304 292 286 276 279 273 269 271 276 275 269 276 268 265
335 336 331 331 330 329 327 323 326 328 327 330 331 332 332 329 331 334 331 333 335 332 327 323 321 321 318 311 308 304 304 300 288 280 275 277 275 281 278 278 281 278 269 271
331 333 329 328 326 327 326 320 320 322 322 324 329 337 327 334 328 330 331 328 325 325 325 323 320 318 316 309 302 300 297 297 293 283 276 274 273 275 276 284 282 284 278 269
327 329 327 325 324 324 321 316 315 319 323 323 324 338 323 328 327 329 330 325 323 321 319 318 317 315 310 306 300 296 296 293 290 288 279 272 273 270 272 275 275 277 279 280
325 326 327 324 324 319 321 310 308 310 317 320 320 334 322 323 319 323 327 323 321 318 315 313 312 313 309 307 303 297 294 293 288 287 287 281 274 273 272 270 270 272 274 273
324 324 325 322 319 316 320 310 307 307 312 319 314 329 314 319 315 323 321 317 316 315 312 311 312 312 311 313 311 302 294 293 292 288 286 286 281 275 270 270 270 266 268 271
325 324 321 321 317 316 317 314 305 302 305 313 306 321 316 313 312 319 318 319 318 316 313 311 311 308 305 306 308 302 295 292 292 289 287 283 281 281 279 278 275 271 267 266
324 324 319 320 315 312 314 307 300 300 306 304 319 308 319 307 315 315 313 312 310 310 312 314 312 308 307 305 299 302 295 290 292 290 287 284 283 281 279 277 275 274 274 271
325 325 319 319 316 309 308 304 297 299 299 302 314 309 311 308 311 311 311 309 309 312 313 315 313 313 311 300 297 299 293 287 282 285 282 282 280 279 278 277 277 276 275 274
321 323 320 319 314 309 314 307 303 304 307 307 309 310 305 309 311 308 308 308 309 311 312 314 313 312 305 296 298 302 299 292 285 281 277 275 276 278 279 281 281 280 279 278
320 322 321 322 316 310 314 311 310 309 306 308 308 309 308 308 309 308 308 304 306 313 313 311 310 305 299 294 294 301 302 292 283 286 281 279 279 279 280 280 279 280 280 280
313 317 317 316 312 311 310 310 308 307 304 305 307 306 306 308 307 309 306 302 306 311 310 309 305 303 301 299 296 300 299 301 290 278 279 280 280 280 279 278 276 276 277 278
314 317 313 312 312 312 310 306 306 305 303 304 306 304 306 308 307 307 308 308 309 308 308 305 302 303 304 303 298 295 296 295 295 287 282 280 279 279 279 279 279 277 276 276
311 312 312 312 308 310 310 305 302 299 301 304 304 303 305 306 305 307 308 308 308 307 305 303 302 302 303 303 301 298 291 290 289 288 286 284 284 284 282 281 281 281 280 279
310 311 312 311 305 310 307 304 301 301 304 304 305 302 305 305 305 307 307 308 307 306 304 302 301 300 301 302 300 296 291 288 287 286 283 282 283 285 286 285 284 284 284 284
311 312 314 312 308 309 308 302 301 300 301 299 301 302 300 301 303 306 307 307 307 305 303 301 299 298 298 300 298 294 292 289 287 287 287 287 287 287 286 286 286 286 286 286
313 312 309 310 307 304 302 299 298 297 300 300 300 299 300 304 305 305 306 307 307 305 303 301 298 297 298 298 296 293 291 289 288 287 287 288 288 288 289 289 289 290 290 289
308 307 308 308 309 303 300 299 300 299 300 303 302 304 305 305 305 307 307 307 306 305 303 302 300 301 301 299 295 292 291 289 289 289 290 290 291 292 293 293 292 292 292 291
310 306 306 307 303 303 303 300 297 300 301 302 304 305 305 305 305 306 308 308 307 303 302 302 305 302 298 298 296 294 292 291 292 292 293 293 294 293 293 294 295 296 296 295
304 303 301 304 304 300 298 297 298 299 301 302 303 304 304 304 305 307 309 310 305 303 299 301 305 303 300 297 295 294 294 294 294 295 295 296 298 299 300 300 300 299 299 299